M I D A S
Marine Information and Data Acquisition System
Tripno 149 of the Zeeleeuw from 2001-08-14 05:36:19 to 2001-08-14 20:05:00
Back to CruiseResearch ActivitiesStationsMapUnderway DataData graphs

EquipmentUnitsComment
TimeDGPSUTC
LatitudeDGPSDM.mWGS84
LongitudeDGPSDM.mWGS84
TemperatureSBE03/SBE38deg celciusITS90
ConductivitySBE21S/mITS90
SalinitySBE21 Practical Salinity Units
ChlorophylAChelsea fluorimeterg/lCalibrated in Aceton
Missing or incorrect values are displayed as -999
Sea surface data collected by the RV Zeeleeuw from 2001-08-14 05:36:19 to 2001-08-14 20:05:00
                                                                                    Next 1000 lines
Time Latitude Longitude Temperature Conductivity Salinity ChlorophylA
2001-08-14 05:36:29 51°13.676 2°55.919 -999 -999 -999  
2001-08-14 05:36:35 51°13.676 2°55.92 -999 -999 -999  
2001-08-14 05:36:39 51°13.676 2°55.92 -999 -999 -999  
2001-08-14 05:36:45 51°13.676 2°55.92 -999 -999 -999  
2001-08-14 05:36:50 51°13.676 2°55.92 -999 -999 -999  
2001-08-14 05:36:55 51°13.676 2°55.92 -999 -999 -999  
2001-08-14 05:36:59 51°13.676 2°55.92 -999 -999 -999  
2001-08-14 05:37:05 51°13.676 2°55.921 -999 -999 -999  
2001-08-14 05:37:09 51°13.676 2°55.921 -999 -999 -999  
2001-08-14 05:37:15 51°13.676 2°55.921 -999 -999 -999  
2001-08-14 05:37:19 51°13.676 2°55.921 -999 -999 -999  
2001-08-14 05:37:25 51°13.675 2°55.922 -999 -999 -999  
2001-08-14 05:37:29 51°13.675 2°55.922 -999 -999 -999  
2001-08-14 06:47:13 51°13.679 2°55.927 -999 -999 -999  
2001-08-14 06:47:17 51°13.679 2°55.927 -999 -999 -999  
2001-08-14 06:47:21 51°13.679 2°55.927 -999 -999 -999  
2001-08-14 06:47:27 51°13.679 2°55.926 -999 -999 -999  
2001-08-14 06:47:33 51°13.677 2°55.925 -999 -999 -999  
2001-08-14 06:47:37 51°13.677 2°55.925 -999 -999 -999  
2001-08-14 06:47:43 51°13.678 2°55.925 -999 -999 -999  
2001-08-14 06:47:47 51°13.678 2°55.925 -999 -999 -999  
2001-08-14 06:47:53 51°13.678 2°55.925 -999 -999 -999  
2001-08-14 06:47:57 51°13.678 2°55.925 -999 -999 -999  
2001-08-14 06:48:03 51°13.678 2°55.924 -999 -999 -999  
2001-08-14 06:48:07 51°13.678 2°55.924 -999 -999 -999  
2001-08-14 06:48:12 51°13.678 2°55.924 -999 -999 -999  
2001-08-14 06:48:17 51°13.677 2°55.924 -999 -999 -999  
2001-08-14 06:48:23 51°13.677 2°55.924 -999 -999 -999  
2001-08-14 06:48:27 51°13.677 2°55.924 -999 -999 -999  
2001-08-14 06:48:33 51°13.678 2°55.924 -999 -999 -999  
2001-08-14 06:48:37 51°13.678 2°55.924 -999 -999 -999  
2001-08-14 06:48:43 51°13.678 2°55.924 -999 -999 -999  
2001-08-14 06:48:48 51°13.678 2°55.924 -999 -999 -999  
2001-08-14 06:48:53 51°13.678 2°55.924 -999 -999 -999  
2001-08-14 06:48:57 51°13.678 2°55.924 -999 -999 -999  
2001-08-14 06:49:03 51°13.678 2°55.924 -999 -999 -999  
2001-08-14 06:49:07 51°13.678 2°55.924 -999 -999 -999  
2001-08-14 06:49:13 51°13.678 2°55.924 -999 -999 -999  
2001-08-14 06:49:17 51°13.678 2°55.924 -999 -999 -999  
2001-08-14 06:49:23 51°13.678 2°55.924 -999 -999 -999  
2001-08-14 06:49:27 51°13.678 2°55.924 -999 -999 -999  
2001-08-14 06:49:32 51°13.678 2°55.924 -999 -999 -999  
2001-08-14 06:49:37 51°13.678 2°55.923 -999 -999 -999  
2001-08-14 06:49:41 51°13.678 2°55.923 -999 -999 -999  
2001-08-14 06:49:47 51°13.678 2°55.923 -999 -999 -999  
2001-08-14 06:49:53 51°13.678 2°55.923 -999 -999 -999  
2001-08-14 06:49:57 51°13.678 2°55.923 -999 -999 -999  
2001-08-14 06:50:03 51°13.678 2°55.923 -999 -999 -999  
2001-08-14 06:50:07 51°13.678 2°55.923 -999 -999 -999  
2001-08-14 06:50:13 51°13.678 2°55.923 -999 -999 -999  
2001-08-14 06:50:17 51°13.678 2°55.923 -999 -999 -999  
2001-08-14 06:50:23 51°13.678 2°55.923 -999 -999 -999  
2001-08-14 06:50:27 51°13.678 2°55.923 -999 -999 -999  
2001-08-14 06:50:33 51°13.678 2°55.923 -999 -999 -999  
2001-08-14 06:50:37 51°13.678 2°55.923 -999 -999 -999  
2001-08-14 06:50:43 51°13.678 2°55.923 -999 -999 -999  
2001-08-14 06:50:47 51°13.678 2°55.923 -999 -999 -999  
2001-08-14 06:50:53 51°13.678 2°55.923 -999 -999 -999  
2001-08-14 06:50:57 51°13.678 2°55.923 -999 -999 -999  
2001-08-14 06:51:03 51°13.678 2°55.923 -999 -999 -999  
2001-08-14 06:51:07 51°13.678 2°55.923 -999 -999 -999  
2001-08-14 06:51:13 51°13.678 2°55.923 -999 -999 -999  
2001-08-14 06:51:18 51°13.678 2°55.923 -999 -999 -999  
2001-08-14 06:51:23 51°13.678 2°55.923 -999 -999 -999  
2001-08-14 06:51:28 51°13.678 2°55.923 -999 -999 -999  
2001-08-14 06:51:33 51°13.678 2°55.923 -999 -999 -999  
2001-08-14 06:51:37 51°13.678 2°55.923 -999 -999 -999  
2001-08-14 06:51:41 51°13.678 2°55.923 -999 -999 -999  
2001-08-14 06:51:48 51°13.678 2°55.923 -999 -999 -999  
2001-08-14 06:51:53 51°13.678 2°55.923 -999 -999 -999  
2001-08-14 06:51:57 51°13.678 2°55.923 -999 -999 -999  
2001-08-14 06:52:03 51°13.678 2°55.923 -999 -999 -999  
2001-08-14 06:52:07 51°13.678 2°55.923 -999 -999 -999  
2001-08-14 06:52:13 51°13.678 2°55.923 -999 -999 -999  
2001-08-14 06:52:17 51°13.678 2°55.923 -999 -999 -999  
2001-08-14 06:52:23 51°13.678 2°55.923 -999 -999 -999  
2001-08-14 06:52:28 51°13.678 2°55.923 -999 -999 -999  
2001-08-14 06:52:33 51°13.678 2°55.923 -999 -999 -999  
2001-08-14 06:52:37 51°13.678 2°55.923 -999 -999 -999  
2001-08-14 06:52:41 51°13.678 2°55.923 -999 -999 -999  
2001-08-14 06:52:47 51°13.678 2°55.924 -999 -999 -999  
2001-08-14 06:52:53 51°13.678 2°55.924 -999 -999 -999  
2001-08-14 06:52:57 51°13.677 2°55.924 -999 -999 -999  
2001-08-14 06:53:03 51°13.677 2°55.923 -999 -999 -999  
2001-08-14 06:53:07 51°13.677 2°55.923 -999 -999 -999  
2001-08-14 06:53:13 51°13.677 2°55.924 -999 -999 -999  
2001-08-14 06:53:17 51°13.677 2°55.924 -999 -999 -999  
2001-08-14 06:53:23 51°13.677 2°55.924 -999 -999 -999  
2001-08-14 06:53:27 51°13.677 2°55.924 -999 -999 -999  
2001-08-14 06:53:33 51°13.677 2°55.924 -999 -999 -999  
2001-08-14 06:53:37 51°13.677 2°55.924 -999 -999 -999  
2001-08-14 06:53:43 51°13.677 2°55.924 -999 -999 -999  
2001-08-14 06:53:47 51°13.676 2°55.924 -999 -999 -999  
2001-08-14 06:53:53 51°13.676 2°55.924 -999 -999 -999  
2001-08-14 06:53:57 51°13.676 2°55.924 -999 -999 -999  
2001-08-14 06:54:03 51°13.676 2°55.924 -999 -999 -999  
2001-08-14 06:54:07 51°13.676 2°55.924 -999 -999 -999  
2001-08-14 06:54:13 51°13.676 2°55.924 -999 -999 -999  
2001-08-14 06:54:17 51°13.676 2°55.924 -999 -999 -999  
2001-08-14 06:54:23 51°13.676 2°55.924 -999 -999 -999  
2001-08-14 06:54:27 51°13.676 2°55.924 -999 -999 -999  
2001-08-14 06:54:33 51°13.676 2°55.924 -999 -999 -999  
2001-08-14 06:54:37 51°13.676 2°55.924 -999 -999 -999  
2001-08-14 06:54:43 51°13.676 2°55.924 -999 -999 -999  
2001-08-14 06:54:47 51°13.676 2°55.924 -999 -999 -999  
2001-08-14 06:54:53 51°13.676 2°55.924 -999 -999 -999  
2001-08-14 06:54:57 51°13.676 2°55.924 -999 -999 -999  
2001-08-14 06:55:03 51°13.676 2°55.924 -999 -999 -999  
2001-08-14 06:55:07 51°13.676 2°55.924 -999 -999 -999  
2001-08-14 06:55:13 51°13.676 2°55.924 -999 -999 -999  
2001-08-14 06:55:17 51°13.676 2°55.924 -999 -999 -999  
2001-08-14 06:55:23 51°13.676 2°55.924 -999 -999 -999  
2001-08-14 06:55:27 51°13.676 2°55.924 -999 -999 -999  
2001-08-14 06:55:33 51°13.676 2°55.924 -999 -999 -999  
2001-08-14 06:55:37 51°13.676 2°55.923 -999 -999 -999  
2001-08-14 06:55:43 51°13.676 2°55.924 -999 -999 -999  
2001-08-14 06:55:48 51°13.676 2°55.924 -999 -999 -999  
2001-08-14 06:55:53 51°13.676 2°55.924 -999 -999 -999  
2001-08-14 06:55:57 51°13.676 2°55.924 -999 -999 -999  
2001-08-14 06:56:01 51°13.676 2°55.924 -999 -999 -999  
2001-08-14 06:56:07 51°13.676 2°55.924 -999 -999 -999  
2001-08-14 06:56:13 51°13.676 2°55.925 -999 -999 -999  
2001-08-14 06:56:17 51°13.676 2°55.925 -999 -999 -999  
2001-08-14 06:56:23 51°13.676 2°55.925 -999 -999 -999  
2001-08-14 06:56:28 51°13.675 2°55.926 -999 -999 -999  
2001-08-14 06:56:33 51°13.675 2°55.926 -999 -999 -999  
2001-08-14 06:56:37 51°13.676 2°55.926 -999 -999 -999  
2001-08-14 06:56:43 51°13.676 2°55.926 -999 -999 -999  
2001-08-14 06:56:47 51°13.676 2°55.926 -999 -999 -999  
2001-08-14 06:56:53 51°13.676 2°55.926 -999 -999 -999  
2001-08-14 06:56:57 51°13.676 2°55.926 -999 -999 -999  
2001-08-14 06:57:03 51°13.676 2°55.926 -999 -999 -999  
2001-08-14 06:57:07 51°13.676 2°55.926 -999 -999 -999  
2001-08-14 06:57:13 51°13.676 2°55.926 -999 -999 -999  
2001-08-14 06:57:17 51°13.676 2°55.926 -999 -999 -999  
2001-08-14 06:57:23 51°13.676 2°55.926 -999 -999 -999  
2001-08-14 06:57:27 51°13.676 2°55.926 -999 -999 -999  
2001-08-14 06:57:33 51°13.676 2°55.926 -999 -999 -999  
2001-08-14 06:57:37 51°13.676 2°55.926 -999 -999 -999  
2001-08-14 06:57:41 51°13.676 2°55.926 -999 -999 -999  
2001-08-14 06:57:47 51°13.676 2°55.926 -999 -999 -999  
2001-08-14 06:57:53 51°13.675 2°55.925 -999 -999 -999  
2001-08-14 06:57:57 51°13.675 2°55.925 -999 -999 -999  
2001-08-14 06:58:03 51°13.676 2°55.926 -999 -999 -999  
2001-08-14 06:58:07 51°13.676 2°55.926 -999 -999 -999  
2001-08-14 06:58:12 51°13.676 2°55.926 -999 -999 -999  
2001-08-14 06:58:17 51°13.676 2°55.926 -999 -999 -999  
2001-08-14 06:58:21 51°13.676 2°55.926 -999 -999 -999  
2001-08-14 06:58:27 51°13.676 2°55.926 -999 -999 -999  
2001-08-14 06:58:33 51°13.676 2°55.926 -999 -999 -999  
2001-08-14 06:58:37 51°13.676 2°55.926 -999 -999 -999  
2001-08-14 06:58:43 51°13.676 2°55.926 -999 -999 -999  
2001-08-14 06:58:47 51°13.676 2°55.926 -999 -999 -999  
2001-08-14 06:58:53 51°13.676 2°55.927 -999 -999 -999  
2001-08-14 06:58:57 51°13.676 2°55.927 -999 -999 -999  
2001-08-14 06:59:01 51°13.676 2°55.927 -999 -999 -999  
2001-08-14 06:59:07 51°13.676 2°55.927 -999 -999 -999  
2001-08-14 06:59:13 51°13.676 2°55.927 -999 -999 -999  
2001-08-14 06:59:17 51°13.676 2°55.927 -999 -999 -999  
2001-08-14 06:59:23 51°13.676 2°55.927 -999 -999 -999  
2001-08-14 06:59:27 51°13.676 2°55.927 -999 -999 -999  
2001-08-14 06:59:31 51°13.676 2°55.927 -999 -999 -999  
2001-08-14 06:59:37 51°13.675 2°55.927 -999 -999 -999  
2001-08-14 06:59:43 51°13.675 2°55.927 -999 -999 -999  
2001-08-14 06:59:47 51°13.675 2°55.928 -999 -999 -999  
2001-08-14 06:59:53 51°13.675 2°55.928 -999 -999 -999  
2001-08-14 06:59:57 51°13.675 2°55.928 -999 -999 -999  
2001-08-14 07:00:01 51°13.675 2°55.928 -999 -999 -999  
2001-08-14 07:00:07 51°13.675 2°55.928 -999 -999 -999  
2001-08-14 07:00:13 51°13.675 2°55.928 -999 -999 -999  
2001-08-14 07:00:17 51°13.675 2°55.928 -999 -999 -999  
2001-08-14 07:00:23 51°13.675 2°55.927 -999 -999 -999  
2001-08-14 07:00:27 51°13.675 2°55.927 -999 -999 -999  
2001-08-14 07:00:33 51°13.675 2°55.926 -999 -999 -999  
2001-08-14 07:00:37 51°13.675 2°55.926 -999 -999 -999  
2001-08-14 07:00:43 51°13.675 2°55.925 -999 -999 -999  
2001-08-14 07:00:47 51°13.676 2°55.924 -999 -999 -999  
2001-08-14 07:00:52 51°13.676 2°55.923 -999 -999 -999  
2001-08-14 07:00:57 51°13.677 2°55.922 -999 -999 -999  
2001-08-14 07:01:03 51°13.677 2°55.919 -999 -999 -999  
2001-08-14 07:01:07 51°13.678 2°55.917 -999 -999 -999  
2001-08-14 07:01:13 51°13.678 2°55.914 -999 -999 -999  
2001-08-14 07:01:17 51°13.679 2°55.912 -999 -999 -999  
2001-08-14 07:01:23 51°13.68 2°55.908 -999 -999 -999  
2001-08-14 07:01:29 51°13.681 2°55.903 -999 -999 -999  
2001-08-14 07:01:33 51°13.682 2°55.899 -999 -999 -999  
2001-08-14 07:01:39 51°13.683 2°55.893 -999 -999 -999  
2001-08-14 07:01:43 51°13.684 2°55.889 -999 -999 -999  
2001-08-14 07:01:48 51°13.685 2°55.884 -999 -999 -999  
2001-08-14 07:01:53 51°13.686 2°55.878 -999 -999 -999  
2001-08-14 07:01:59 51°13.686 2°55.87 -999 -999 -999  
2001-08-14 07:02:03 51°13.687 2°55.865 -999 -999 -999  
2001-08-14 07:02:09 51°13.688 2°55.857 -999 -999 -999  
2001-08-14 07:02:13 51°13.688 2°55.851 -999 -999 -999  
2001-08-14 07:02:19 51°13.689 2°55.843 -999 -999 -999  
2001-08-14 07:02:23 51°13.689 2°55.837 -999 -999 -999  
2001-08-14 07:02:29 51°13.689 2°55.829 -999 -999 -999  
2001-08-14 07:02:33 51°13.689 2°55.822 -999 -999 -999  
2001-08-14 07:02:39 51°13.69 2°55.813 -999 -999 -999  
2001-08-14 07:02:43 51°13.69 2°55.807 -999 -999 -999  
2001-08-14 07:02:49 51°13.69 2°55.798 -999 -999 -999  
2001-08-14 07:02:53 51°13.69 2°55.792 -999 -999 -999  
2001-08-14 07:02:59 51°13.69 2°55.784 -999 -999 -999  
2001-08-14 07:03:03 51°13.69 2°55.778 -999 -999 -999  
2001-08-14 07:03:07 51°13.69 2°55.772 -999 -999 -999  
2001-08-14 07:03:13 51°13.689 2°55.763 -999 -999 -999  
2001-08-14 07:03:17 51°13.689 2°55.758 -999 -999 -999  
2001-08-14 07:03:23 51°13.689 2°55.75 -999 -999 -999  
2001-08-14 07:03:29 51°13.689 2°55.742 -999 -999 -999  
2001-08-14 07:03:33 51°13.688 2°55.737 -999 -999 -999  
2001-08-14 07:03:37 51°13.688 2°55.733 -999 -999 -999  
2001-08-14 07:03:41 51°13.688 2°55.728 -999 -999 -999  
2001-08-14 07:03:47 51°13.688 2°55.724 -999 -999 -999  
2001-08-14 07:03:52 51°13.688 2°55.722 -999 -999 -999  
2001-08-14 07:03:57 51°13.688 2°55.721 -999 -999 -999  
2001-08-14 07:04:03 51°13.69 2°55.723 -999 -999 -999  
2001-08-14 07:04:07 51°13.692 2°55.725 -999 -999 -999  
2001-08-14 07:04:12 51°13.696 2°55.727 -999 -999 -999  
2001-08-14 07:04:17 51°13.7 2°55.73 -999 -999 -999  
2001-08-14 07:04:23 51°13.707 2°55.732 -999 -999 -999  
2001-08-14 07:04:27 51°13.711 2°55.733 -999 -999 -999  
2001-08-14 07:04:33 51°13.719 2°55.731 -999 -999 -999  
2001-08-14 07:04:37 51°13.725 2°55.729 -999 -999 -999  
2001-08-14 07:04:43 51°13.734 2°55.724 -999 -999 -999  
2001-08-14 07:04:47 51°13.739 2°55.719 -999 -999 -999  
2001-08-14 07:04:53 51°13.747 2°55.712 -999 -999 -999  
2001-08-14 07:04:57 51°13.753 2°55.707 -999 -999 -999  
2001-08-14 07:05:03 51°13.761 2°55.7 -999 -999 -999  
2001-08-14 07:05:07 51°13.766 2°55.694 -999 -999 -999  
2001-08-14 07:05:13 51°13.773 2°55.686 -999 -999 -999  
2001-08-14 07:05:17 51°13.778 2°55.681 -999 -999 -999  
2001-08-14 07:05:23 51°13.786 2°55.673 -999 -999 -999  
2001-08-14 07:05:27 51°13.791 2°55.667 -999 -999 -999  
2001-08-14 07:05:33 51°13.798 2°55.659 -999 -999 -999  
2001-08-14 07:05:37 51°13.803 2°55.654 -999 -999 -999  
2001-08-14 07:05:43 51°13.811 2°55.646 -999 -999 -999  
2001-08-14 07:05:47 51°13.816 2°55.641 -999 -999 -999  
2001-08-14 07:05:53 51°13.824 2°55.632 -999 -999 -999  
2001-08-14 07:05:57 51°13.828 2°55.627 -999 -999 -999  
2001-08-14 07:06:03 51°13.836 2°55.619 -999 -999 -999  
2001-08-14 07:06:07 51°13.841 2°55.614 -999 -999 -999  
2001-08-14 07:06:13 51°13.849 2°55.607 -999 -999 -999  
2001-08-14 07:06:17 51°13.854 2°55.602 -999 -999 -999  
2001-08-14 07:06:23 51°13.862 2°55.595 -999 -999 -999  
2001-08-14 07:06:27 51°13.867 2°55.591 -999 -999 -999  
2001-08-14 07:06:32 51°13.874 2°55.585 -999 -999 -999  
2001-08-14 07:06:37 51°13.881 2°55.58 -999 -999 -999  
2001-08-14 07:06:43 51°13.889 2°55.574 -999 -999 -999  
2001-08-14 07:06:47 51°13.894 2°55.569 -999 -999 -999  
2001-08-14 07:06:53 51°13.903 2°55.563 -999 -999 -999  
2001-08-14 07:06:57 51°13.908 2°55.559 -999 -999 -999  
2001-08-14 07:07:01 51°13.914 2°55.556 -999 -999 -999  
2001-08-14 07:07:07 51°13.923 2°55.55 -999 -999 -999  
2001-08-14 07:07:13 51°13.932 2°55.545 -999 -999 -999  
2001-08-14 07:07:17 51°13.938 2°55.542 -999 -999 -999  
2001-08-14 07:07:23 51°13.948 2°55.537 -999 -999 -999  
2001-08-14 07:07:27 51°13.954 2°55.534 -999 -999 -999  
2001-08-14 07:07:33 51°13.963 2°55.529 -999 -999 -999  
2001-08-14 07:07:37 51°13.969 2°55.526 -999 -999 -999  
2001-08-14 07:07:43 51°13.979 2°55.521 -999 -999 -999  
2001-08-14 07:07:47 51°13.985 2°55.518 -999 -999 -999  
2001-08-14 07:07:53 51°13.994 2°55.513 -999 -999 -999  
2001-08-14 07:07:57 51°14 2°55.51 -999 -999 -999  
2001-08-14 07:08:03 51°14.01 2°55.505 -999 -999 -999  
2001-08-14 07:08:07 51°14.016 2°55.502 -999 -999 -999  
2001-08-14 07:08:13 51°14.025 2°55.497 -999 -999 -999  
2001-08-14 07:08:17 51°14.031 2°55.493 -999 -999 -999  
2001-08-14 07:08:23 51°14.039 2°55.488 -999 -999 -999  
2001-08-14 07:08:27 51°14.045 2°55.485 -999 -999 -999  
2001-08-14 07:08:33 51°14.053 2°55.48 -999 -999 -999  
2001-08-14 07:08:37 51°14.058 2°55.477 -999 -999 -999  
2001-08-14 07:08:41 51°14.063 2°55.474 -999 -999 -999  
2001-08-14 07:08:47 51°14.071 2°55.469 -999 -999 -999  
2001-08-14 07:08:53 51°14.079 2°55.464 -999 -999 -999  
2001-08-14 07:08:57 51°14.084 2°55.461 -999 -999 -999  
2001-08-14 07:09:03 51°14.092 2°55.456 -999 -999 -999  
2001-08-14 07:09:07 51°14.097 2°55.453 -999 -999 -999  
2001-08-14 07:09:13 51°14.105 2°55.448 -999 -999 -999  
2001-08-14 07:09:17 51°14.11 2°55.444 -999 -999 -999  
2001-08-14 07:09:23 51°14.118 2°55.438 -999 -999 -999  
2001-08-14 07:09:27 51°14.124 2°55.434 -999 -999 -999  
2001-08-14 07:09:32 51°14.131 2°55.429 -999 -999 -999  
2001-08-14 07:09:37 51°14.138 2°55.424 -999 -999 -999  
2001-08-14 07:09:43 51°14.147 2°55.416 -999 -999 -999  
2001-08-14 07:09:47 51°14.153 2°55.411 -999 -999 -999  
2001-08-14 07:09:53 51°14.162 2°55.403 -999 -999 -999  
2001-08-14 07:09:57 51°14.168 2°55.398 -999 -999 -999  
2001-08-14 07:10:01 51°14.174 2°55.392 -999 -999 -999  
2001-08-14 07:10:07 51°14.183 2°55.383 -999 -999 -999  
2001-08-14 07:10:13 51°14.192 2°55.374 -999 -999 -999  
2001-08-14 07:10:17 51°14.198 2°55.367 -999 -999 -999  
2001-08-14 07:10:23 51°14.208 2°55.357 -999 -999 -999  
2001-08-14 07:10:27 51°14.213 2°55.35 -999 -999 -999  
2001-08-14 07:10:32 51°14.221 2°55.341 -999 -999 -999  
2001-08-14 07:10:37 51°14.228 2°55.331 -999 -999 -999  
2001-08-14 07:10:43 51°14.236 2°55.319 -999 -999 -999  
2001-08-14 07:10:47 51°14.242 2°55.311 -999 -999 -999  
2001-08-14 07:10:53 51°14.25 2°55.298 -999 -999 -999  
2001-08-14 07:10:57 51°14.256 2°55.289 -999 -999 -999  
2001-08-14 07:11:03 51°14.263 2°55.276 -999 -999 -999  
2001-08-14 07:11:07 51°14.268 2°55.267 -999 -999 -999  
2001-08-14 07:11:13 51°14.276 2°55.253 -999 -999 -999  
2001-08-14 07:11:17 51°14.281 2°55.243 -999 -999 -999  
2001-08-14 07:11:23 51°14.288 2°55.229 -999 -999 -999  
2001-08-14 07:11:27 51°14.293 2°55.219 -999 -999 -999  
2001-08-14 07:11:33 51°14.301 2°55.205 -999 -999 -999  
2001-08-14 07:11:37 51°14.306 2°55.196 -999 -999 -999  
2001-08-14 07:11:41 51°14.311 2°55.186 -999 -999 -999  
2001-08-14 07:11:47 51°14.318 2°55.172 -999 -999 -999  
2001-08-14 07:11:52 51°14.324 2°55.159 -999 -999 -999  
2001-08-14 07:11:57 51°14.331 2°55.146 -999 -999 -999  
2001-08-14 07:12:03 51°14.338 2°55.131 -999 -999 -999  
2001-08-14 07:12:07 51°14.343 2°55.12 -999 -999 -999  
2001-08-14 07:12:12 51°14.349 2°55.107 -999 -999 -999  
2001-08-14 07:12:17 51°14.356 2°55.094 -999 -999 -999  
2001-08-14 07:12:23 51°14.366 2°55.079 -999 -999 -999  
2001-08-14 07:12:27 51°14.373 2°55.07 -999 -999 -999  
2001-08-14 07:12:33 51°14.384 2°55.058 -999 -999 -999  
2001-08-14 07:12:37 51°14.392 2°55.051 -999 -999 -999  
2001-08-14 07:12:43 51°14.405 2°55.041 -999 -999 -999  
2001-08-14 07:12:47 51°14.414 2°55.034 -999 -999 -999  
2001-08-14 07:12:53 51°14.429 2°55.024 -999 -999 -999  
2001-08-14 07:12:57 51°14.439 2°55.017 -999 -999 -999  
2001-08-14 07:13:03 51°14.454 2°55.006 -999 -999 -999  
2001-08-14 07:13:07 51°14.465 2°54.998 -999 -999 -999  
2001-08-14 07:13:13 51°14.481 2°54.986 -999 -999 -999  
2001-08-14 07:13:17 51°14.492 2°54.978 -999 -999 -999  
2001-08-14 07:13:23 51°14.509 2°54.966 -999 -999 -999  
2001-08-14 07:13:27 51°14.52 2°54.958 -999 -999 -999  
2001-08-14 07:13:32 51°14.535 2°54.947 -999 -999 -999  
2001-08-14 07:13:37 51°14.55 2°54.936 -999 -999 -999  
2001-08-14 07:13:42 51°14.566 2°54.925 -999 -999 -999  
2001-08-14 07:13:47 51°14.582 2°54.913 -999 -999 -999  
2001-08-14 07:13:53 51°14.601 2°54.899 -999 -999 -999  
2001-08-14 07:13:57 51°14.615 2°54.889 -999 -999 -999  
2001-08-14 07:14:02 51°14.631 2°54.876 -999 -999 -999  
2001-08-14 07:14:07 51°14.647 2°54.863 -999 -999 -999  
2001-08-14 07:14:13 51°14.667 2°54.848 -999 -999 -999  
2001-08-14 07:14:17 51°14.68 2°54.837 -999 -999 -999  
2001-08-14 07:14:23 51°14.7 2°54.822 -999 -999 -999  
2001-08-14 07:14:27 51°14.714 2°54.811 -999 -999 -999  
2001-08-14 07:14:32 51°14.73 2°54.798 -999 -999 -999  
2001-08-14 07:14:37 51°14.747 2°54.785 -999 -999 -999  
2001-08-14 07:14:43 51°14.768 2°54.77 -999 -999 -999  
2001-08-14 07:14:47 51°14.781 2°54.759 -999 -999 -999  
2001-08-14 07:14:53 51°14.801 2°54.743 -999 -999 -999  
2001-08-14 07:14:57 51°14.814 2°54.731 -999 -999 -999  
2001-08-14 07:15:03 51°14.833 2°54.712 -999 -999 -999  
2001-08-14 07:15:07 51°14.845 2°54.699 -999 -999 -999  
2001-08-14 07:15:13 51°14.863 2°54.679 -999 -999 -999  
2001-08-14 07:15:17 51°14.875 2°54.664 -999 -999 -999  
2001-08-14 07:15:23 51°14.892 2°54.642 -999 -999 -999  
2001-08-14 07:15:27 51°14.904 2°54.627 -999 -999 -999  
2001-08-14 07:15:33 51°14.921 2°54.605 -999 -999 -999  
2001-08-14 07:15:37 51°14.932 2°54.591 -999 -999 -999  
2001-08-14 07:15:41 51°14.944 2°54.576 -999 -999 -999  
2001-08-14 07:15:47 51°14.962 2°54.555 -999 -999 -999  
2001-08-14 07:15:52 51°14.977 2°54.538 -999 -999 -999  
2001-08-14 07:15:57 51°14.992 2°54.522 -999 -999 -999  
2001-08-14 07:16:03 51°15.011 2°54.501 -999 -999 -999  
2001-08-14 07:16:07 51°15.023 2°54.488 -999 -999 -999  
2001-08-14 07:16:13 51°15.041 2°54.468 -999 -999 -999  
2001-08-14 07:16:17 51°15.054 2°54.455 -999 -999 -999  
2001-08-14 07:16:22 51°15.069 2°54.438 -999 -999 -999  
2001-08-14 07:16:27 51°15.084 2°54.421 -999 -999 -999  
2001-08-14 07:16:33 51°15.102 2°54.401 -999 -999 -999  
2001-08-14 07:16:37 51°15.115 2°54.387 -999 -999 -999  
2001-08-14 07:16:43 51°15.133 2°54.366 -999 -999 -999  
2001-08-14 07:16:47 51°15.145 2°54.352 -999 -999 -999  
2001-08-14 07:16:53 51°15.164 2°54.332 -999 -999 -999  
2001-08-14 07:16:57 51°15.176 2°54.318 -999 -999 -999  
2001-08-14 07:17:03 51°15.195 2°54.298 -999 -999 -999  
2001-08-14 07:17:07 51°15.207 2°54.284 -999 -999 -999  
2001-08-14 07:17:13 51°15.225 2°54.263 -999 -999 -999  
2001-08-14 07:17:17 51°15.237 2°54.249 -999 -999 -999  
2001-08-14 07:17:23 51°15.255 2°54.228 -999 -999 -999  
2001-08-14 07:17:27 51°15.267 2°54.213 -999 -999 -999  
2001-08-14 07:17:32 51°15.283 2°54.196 -999 -999 -999  
2001-08-14 07:17:37 51°15.298 2°54.179 -999 -999 -999  
2001-08-14 07:17:43 51°15.317 2°54.158 -999 -999 -999  
2001-08-14 07:17:47 51°15.329 2°54.145 -999 -999 -999  
2001-08-14 07:17:52 51°15.345 2°54.128 -999 -999 -999  
2001-08-14 07:17:57 51°15.36 2°54.111 -999 -999 -999  
2001-08-14 07:18:01 51°15.373 2°54.097 -999 -999 -999  
2001-08-14 07:18:07 51°15.391 2°54.077 -999 -999 -999  
2001-08-14 07:18:11 51°15.403 2°54.063 -999 -999 -999  
2001-08-14 07:18:17 51°15.422 2°54.042 -999 -999 -999  
2001-08-14 07:18:21 51°15.434 2°54.028 -999 -999 -999  
2001-08-14 07:18:27 51°15.452 2°54.007 -999 -999 -999  
2001-08-14 07:18:31 51°15.464 2°53.993 -999 -999 -999  
2001-08-14 07:18:37 51°15.483 2°53.972 -999 -999 -999  
2001-08-14 07:18:41 51°15.495 2°53.958 -999 -999 -999  
2001-08-14 07:18:47 51°15.514 2°53.938 -999 -999 -999  
2001-08-14 07:18:51 51°15.526 2°53.924 -999 -999 -999  
2001-08-14 07:18:57 51°15.545 2°53.904 -999 -999 -999  
2001-08-14 07:19:01 51°15.557 2°53.891 -999 -999 -999  
2001-08-14 07:19:07 51°15.576 2°53.87 -999 -999 -999  
2001-08-14 07:19:11 51°15.588 2°53.856 -999 -999 -999  
2001-08-14 07:19:17 51°15.606 2°53.835 -999 -999 -999  
2001-08-14 07:19:21 51°15.619 2°53.821 -999 -999 -999  
2001-08-14 07:19:27 51°15.637 2°53.8 -999 -999 -999  
2001-08-14 07:19:31 51°15.649 2°53.786 -999 -999 -999  
2001-08-14 07:19:37 51°15.667 2°53.764 -999 -999 -999  
2001-08-14 07:19:41 51°15.679 2°53.75 -999 -999 -999  
2001-08-14 07:19:47 51°15.697 2°53.729 -999 -999 -999  
2001-08-14 07:19:51 51°15.709 2°53.715 -999 -999 -999  
2001-08-14 07:19:57 51°15.728 2°53.694 -999 -999 -999  
2001-08-14 07:20:02 51°15.743 2°53.678 -999 -999 -999  
2001-08-14 07:20:07 51°15.759 2°53.661 -999 -999 -999  
2001-08-14 07:20:11 51°15.771 2°53.648 -999 -999 -999  
2001-08-14 07:20:17 51°15.789 2°53.627 -999 -999 -999  
2001-08-14 07:20:21 51°15.802 2°53.614 -999 -999 -999  
2001-08-14 07:20:27 51°15.82 2°53.594 -999 -999 -999  
2001-08-14 07:20:32 51°15.835 2°53.576 -999 -999 -999  
2001-08-14 07:20:37 51°15.851 2°53.559 -999 -999 -999  
2001-08-14 07:20:42 51°15.866 2°53.542 -999 -999 -999  
2001-08-14 07:20:47 51°15.881 2°53.526 -999 -999 -999  
2001-08-14 07:20:51 51°15.894 2°53.512 -999 -999 -999  
2001-08-14 07:20:57 51°15.912 2°53.491 -999 -999 -999  
2001-08-14 07:21:01 51°15.924 2°53.477 -999 -999 -999  
2001-08-14 07:21:07 51°15.942 2°53.457 -999 -999 -999  
2001-08-14 07:21:11 51°15.955 2°53.443 -999 -999 -999  
2001-08-14 07:21:17 51°15.973 2°53.423 -999 -999 -999  
2001-08-14 07:21:21 51°15.986 2°53.41 -999 -999 -999  
2001-08-14 07:21:27 51°16.005 2°53.39 -999 -999 -999  
2001-08-14 07:21:32 51°16.02 2°53.374 -999 -999 -999  
2001-08-14 07:21:37 51°16.036 2°53.358 -999 -999 -999  
2001-08-14 07:21:41 51°16.049 2°53.345 -999 -999 -999  
2001-08-14 07:21:47 51°16.068 2°53.327 -999 -999 -999  
2001-08-14 07:21:51 51°16.081 2°53.314 -999 -999 -999  
2001-08-14 07:21:57 51°16.1 2°53.296 -999 -999 -999  
2001-08-14 07:22:03 51°16.119 2°53.277 -999 -999 -999  
2001-08-14 07:22:07 51°16.132 2°53.265 -999 -999 -999  
2001-08-14 07:22:11 51°16.145 2°53.253 -999 -999 -999  
2001-08-14 07:22:17 51°16.165 2°53.235 -999 -999 -999  
2001-08-14 07:22:21 51°16.178 2°53.223 -999 -999 -999  
2001-08-14 07:22:27 51°16.197 2°53.205 -999 -999 -999  
2001-08-14 07:22:31 51°16.21 2°53.193 -999 -999 -999  
2001-08-14 07:22:37 51°16.23 2°53.176 -999 -999 -999  
2001-08-14 07:22:41 51°16.243 2°53.164 -999 -999 -999  
2001-08-14 07:22:47 51°16.263 2°53.148 -999 -999 -999  
2001-08-14 07:22:51 51°16.277 2°53.136 -999 -999 -999  
2001-08-14 07:22:57 51°16.297 2°53.12 -999 -999 -999  
2001-08-14 07:23:03 51°16.317 2°53.103 -999 -999 -999  
2001-08-14 07:23:07 51°16.33 2°53.093 -999 -999 -999  
2001-08-14 07:23:11 51°16.344 2°53.082 -999 -999 -999  
2001-08-14 07:23:17 51°16.365 2°53.067 -999 -999 -999  
2001-08-14 07:23:21 51°16.379 2°53.057 -999 -999 -999  
2001-08-14 07:23:27 51°16.399 2°53.042 -999 -999 -999  
2001-08-14 07:23:31 51°16.413 2°53.033 -999 -999 -999  
2001-08-14 07:23:37 51°16.434 2°53.018 -999 -999 -999  
2001-08-14 07:23:43 51°16.455 2°53.004 -999 -999 -999  
2001-08-14 07:23:47 51°16.469 2°52.994 -999 -999 -999  
2001-08-14 07:23:51 51°16.483 2°52.984 -999 -999 -999  
2001-08-14 07:23:57 51°16.503 2°52.969 -999 -999 -999  
2001-08-14 07:24:01 51°16.517 2°52.958 -999 -999 -999  
2001-08-14 07:24:07 51°16.537 2°52.943 -999 -999 -999  
2001-08-14 07:24:11 51°16.551 2°52.932 -999 -999 -999  
2001-08-14 07:24:17 51°16.572 2°52.916 -999 -999 -999  
2001-08-14 07:24:21 51°16.585 2°52.905 -999 -999 -999  
2001-08-14 07:24:27 51°16.605 2°52.89 -999 -999 -999  
2001-08-14 07:24:31 51°16.619 2°52.879 -999 -999 -999  
2001-08-14 07:24:37 51°16.639 2°52.863 -999 -999 -999  
2001-08-14 07:24:43 51°16.66 2°52.847 -999 -999 -999  
2001-08-14 07:24:47 51°16.673 2°52.836 -999 -999 -999  
2001-08-14 07:24:51 51°16.686 2°52.824 -999 -999 -999  
2001-08-14 07:24:57 51°16.707 2°52.808 -999 -999 -999  
2001-08-14 07:25:01 51°16.72 2°52.797 -999 -999 -999  
2001-08-14 07:25:07 51°16.74 2°52.78 -999 -999 -999  
2001-08-14 07:25:11 51°16.753 2°52.769 -999 -999 -999  
2001-08-14 07:25:17 51°16.773 2°52.752 -999 -999 -999  
2001-08-14 07:25:23 51°16.794 2°52.736 -999 -999 -999  
2001-08-14 07:25:27 51°16.807 2°52.725 -999 -999 -999  
2001-08-14 07:25:31 51°16.821 2°52.714 -999 -999 -999  
2001-08-14 07:25:37 51°16.841 2°52.698 -999 -999 -999  
2001-08-14 07:25:41 51°16.854 2°52.688 -999 -999 -999  
2001-08-14 07:25:47 51°16.875 2°52.672 -999 -999 -999  
2001-08-14 07:25:53 51°16.896 2°52.657 -999 -999 -999  
2001-08-14 07:25:57 51°16.909 2°52.647 -999 -999 -999  
2001-08-14 07:26:03 51°16.93 2°52.631 -999 -999 -999  
2001-08-14 07:26:07 51°16.944 2°52.621 -999 -999 -999  
2001-08-14 07:26:11 51°16.958 2°52.611 -999 -999 -999  
2001-08-14 07:26:17 51°16.979 2°52.596 -999 -999 -999  
2001-08-14 07:26:21 51°16.992 2°52.585 -999 -999 -999  
2001-08-14 07:26:27 51°17.013 2°52.57 -999 -999 -999  
2001-08-14 07:26:31 51°17.027 2°52.56 -999 -999 -999  
2001-08-14 07:26:37 51°17.048 2°52.544 -999 -999 -999  
2001-08-14 07:26:43 51°17.068 2°52.528 -999 -999 -999  
2001-08-14 07:26:47 51°17.082 2°52.518 -999 -999 -999  
2001-08-14 07:26:51 51°17.096 2°52.507 -999 -999 -999  
2001-08-14 07:26:57 51°17.116 2°52.491 -999 -999 -999  
2001-08-14 07:27:03 51°17.137 2°52.475 -999 -999 -999  
2001-08-14 07:27:07 51°17.15 2°52.464 -999 -999 -999  
2001-08-14 07:27:11 51°17.164 2°52.454 -999 -999 -999  
2001-08-14 07:27:17 51°17.185 2°52.439 -999 -999 -999  
2001-08-14 07:27:21 51°17.198 2°52.428 -999 -999 -999  
2001-08-14 07:27:27 51°17.219 2°52.411 -999 -999 -999  
2001-08-14 07:27:31 51°17.232 2°52.399 -999 -999 -999  
2001-08-14 07:27:37 51°17.252 2°52.381 -999 -999 -999  
2001-08-14 07:27:43 51°17.272 2°52.363 -999 -999 -999  
2001-08-14 07:27:47 51°17.285 2°52.351 -999 -999 -999  
2001-08-14 07:27:51 51°17.299 2°52.34 -999 -999 -999  
2001-08-14 07:27:57 51°17.319 2°52.322 -999 -999 -999  
2001-08-14 07:28:01 51°17.332 2°52.31 -999 -999 -999  
2001-08-14 07:28:07 51°17.352 2°52.291 -999 -999 -999  
2001-08-14 07:28:11 51°17.365 2°52.279 -999 -999 -999  
2001-08-14 07:28:17 51°17.384 2°52.26 -999 -999 -999  
2001-08-14 07:28:23 51°17.404 2°52.241 -999 -999 -999  
2001-08-14 07:28:27 51°17.416 2°52.227 -999 -999 -999  
2001-08-14 07:28:31 51°17.429 2°52.214 -999 -999 -999  
2001-08-14 07:28:37 51°17.448 2°52.193 -999 -999 -999  
2001-08-14 07:28:41 51°17.46 2°52.179 -999 -999 -999  
2001-08-14 07:28:47 51°17.478 2°52.157 -999 -999 -999  
2001-08-14 07:28:51 51°17.49 2°52.142 -999 -999 -999  
2001-08-14 07:28:57 51°17.508 2°52.119 -999 -999 -999  
2001-08-14 07:29:01 51°17.519 2°52.103 -999 -999 -999  
2001-08-14 07:29:07 51°17.535 2°52.079 -999 -999 -999  
2001-08-14 07:29:11 51°17.546 2°52.062 -999 -999 -999  
2001-08-14 07:29:17 51°17.561 2°52.035 -999 -999 -999  
2001-08-14 07:29:23 51°17.575 2°52.007 -999 -999 -999  
2001-08-14 07:29:27 51°17.583 2°51.989 -999 -999 -999  
2001-08-14 07:29:31 51°17.592 2°51.969 -999 -999 -999  
2001-08-14 07:29:37 51°17.604 2°51.94 -999 -999 -999  
2001-08-14 07:29:41 51°17.612 2°51.92 -999 -999 -999  
2001-08-14 07:29:47 51°17.623 2°51.89 -999 -999 -999  
2001-08-14 07:29:51 51°17.63 2°51.87 -999 -999 -999  
2001-08-14 07:29:57 51°17.641 2°51.84 -999 -999 -999  
2001-08-14 07:30:01 51°17.647 2°51.819 -999 -999 -999  
2001-08-14 07:30:07 51°17.657 2°51.788 -999 -999 -999  
2001-08-14 07:30:13 51°17.667 2°51.756 -999 -999 -999  
2001-08-14 07:30:17 51°17.673 2°51.735 -999 -999 -999  
2001-08-14 07:30:23 51°17.682 2°51.704 -999 -999 -999  
2001-08-14 07:30:27 51°17.688 2°51.683 -999 -999 -999  
2001-08-14 07:30:31 51°17.693 2°51.662 -999 -999 -999  
2001-08-14 07:30:37 51°17.702 2°51.63 -999 -999 -999  
2001-08-14 07:30:41 51°17.707 2°51.609 -999 -999 -999  
2001-08-14 07:30:47 51°17.715 2°51.577 -999 -999 -999  
2001-08-14 07:30:51 51°17.72 2°51.555 -999 -999 -999  
2001-08-14 07:30:57 51°17.727 2°51.523 -999 -999 -999  
2001-08-14 07:31:01 51°17.732 2°51.501 -999 -999 -999  
2001-08-14 07:31:07 51°17.74 2°51.468 -999 -999 -999  
2001-08-14 07:31:13 51°17.747 2°51.436 -999 -999 -999  
2001-08-14 07:31:17 51°17.752 2°51.414 -999 -999 -999  
2001-08-14 07:31:23 51°17.76 2°51.382 -999 -999 -999  
2001-08-14 07:31:27 51°17.765 2°51.36 -999 -999 -999  
2001-08-14 07:31:31 51°17.771 2°51.339 -999 -999 -999  
2001-08-14 07:31:37 51°17.779 2°51.306 -999 -999 -999  
2001-08-14 07:31:41 51°17.784 2°51.285 -999 -999 -999  
2001-08-14 07:31:47 51°17.793 2°51.252 -999 -999 -999  
2001-08-14 07:31:53 51°17.801 2°51.22 -999 -999 -999  
2001-08-14 07:31:57 51°17.806 2°51.198 -999 -999 -999  
2001-08-14 07:32:01 51°17.812 2°51.177 -999 -999 -999  
2001-08-14 07:32:07 51°17.82 2°51.145 -999 -999 -999  
2001-08-14 07:32:13 51°17.829 2°51.113 -999 -999 -999  
2001-08-14 07:32:17 51°17.834 2°51.091 -999 -999 -999  
2001-08-14 07:32:23 51°17.843 2°51.059 -999 -999 -999  
2001-08-14 07:32:27 51°17.849 2°51.038 -999 -999 -999  
2001-08-14 07:32:31 51°17.854 2°51.016 -999 -999 -999  
2001-08-14 07:32:37 51°17.863 2°50.984 -999 -999 -999  
2001-08-14 07:32:41 51°17.868 2°50.962 -999 -999 -999  
2001-08-14 07:32:47 51°17.876 2°50.93 -999 -999 -999  
2001-08-14 07:32:53 51°17.884 2°50.898 -999 -999 -999  
2001-08-14 07:32:57 51°17.889 2°50.876 -999 -999 -999  
2001-08-14 07:33:03 51°17.897 2°50.844 -999 -999 -999  
2001-08-14 07:33:07 51°17.903 2°50.822 -999 -999 -999  
2001-08-14 07:33:13 51°17.911 2°50.79 -999 -999 -999  
2001-08-14 07:33:17 51°17.917 2°50.768 -999 -999 -999  
2001-08-14 07:33:23 51°17.926 2°50.736 -999 -999 -999  
2001-08-14 07:33:27 51°17.931 2°50.715 -999 -999 -999  
2001-08-14 07:33:32 51°17.939 2°50.689 -999 -999 -999  
2001-08-14 07:33:37 51°17.946 2°50.662 -999 -999 -999  
2001-08-14 07:33:41 51°17.952 2°50.641 -999 -999 -999  
2001-08-14 07:33:47 51°17.961 2°50.609 -999 -999 -999  
2001-08-14 07:33:51 51°17.967 2°50.588 -999 -999 -999  
2001-08-14 07:33:57 51°17.976 2°50.556 -999 -999 -999  
2001-08-14 07:34:03 51°17.985 2°50.524 -999 -999 -999  
2001-08-14 07:34:07 51°17.991 2°50.503 -999 -999 -999  
2001-08-14 07:34:13 51°17.999 2°50.471 -999 -999 -999  
2001-08-14 07:34:17 51°18.005 2°50.45 -999 -999 -999  
2001-08-14 07:34:21 51°18.01 2°50.428 -999 -999 -999  
2001-08-14 07:34:27 51°18.018 2°50.396 -999 -999 -999  
2001-08-14 07:34:33 51°18.027 2°50.364 -999 -999 -999  
2001-08-14 07:34:37 51°18.032 2°50.342 -999 -999 -999  
2001-08-14 07:34:43 51°18.04 2°50.31 -999 -999 -999  
2001-08-14 07:34:47 51°18.045 2°50.288 -999 -999 -999  
2001-08-14 07:34:51 51°18.05 2°50.267 -999 -999 -999  
2001-08-14 07:34:57 51°18.058 2°50.234 -999 -999 -999  
2001-08-14 07:35:01 51°18.063 2°50.213 -999 -999 -999  
2001-08-14 07:35:07 51°18.071 2°50.18 -999 -999 -999  
2001-08-14 07:35:11 51°18.076 2°50.158 -999 -999 -999  
2001-08-14 07:35:17 51°18.084 2°50.126 -999 -999 -999  
2001-08-14 07:35:23 51°18.092 2°50.093 -999 -999 -999  
2001-08-14 07:35:27 51°18.097 2°50.072 -999 -999 -999  
2001-08-14 07:35:31 51°18.102 2°50.051 -999 -999 -999  
2001-08-14 07:35:37 51°18.111 2°50.018 -999 -999 -999  
2001-08-14 07:35:43 51°18.119 2°49.986 -999 -999 -999  
2001-08-14 07:35:47 51°18.124 2°49.964 -999 -999 -999  
2001-08-14 07:35:51 51°18.13 2°49.943 -999 -999 -999  
2001-08-14 07:35:57 51°18.138 2°49.911 -999 -999 -999  
2001-08-14 07:36:01 51°18.143 2°49.889 -999 -999 -999  
2001-08-14 07:36:07 51°18.15 2°49.857 -999 -999 -999  
2001-08-14 07:36:11 51°18.156 2°49.836 -999 -999 -999  
2001-08-14 07:36:17 51°18.164 2°49.803 -999 -999 -999  
2001-08-14 07:36:23 51°18.173 2°49.771 -999 -999 -999  
2001-08-14 07:36:27 51°18.178 2°49.749 -999 -999 -999  
2001-08-14 07:36:33 51°18.186 2°49.717 -999 -999 -999  
2001-08-14 07:36:37 51°18.192 2°49.696 -999 -999 -999  
2001-08-14 07:36:41 51°18.198 2°49.674 -999 -999 -999  
2001-08-14 07:36:47 51°18.206 2°49.642 -999 -999 -999  
2001-08-14 07:36:51 51°18.211 2°49.62 -999 -999 -999  
2001-08-14 07:36:57 51°18.22 2°49.588 -999 -999 -999  
2001-08-14 07:37:03 51°18.228 2°49.556 -999 -999 -999  
2001-08-14 07:37:07 51°18.233 2°49.534 -999 -999 -999  
2001-08-14 07:37:11 51°18.239 2°49.513 -999 -999 -999  
2001-08-14 07:37:17 51°18.247 2°49.48 -999 -999 -999  
2001-08-14 07:37:21 51°18.252 2°49.459 -999 -999 -999  
2001-08-14 07:37:27 51°18.26 2°49.427 -999 -999 -999  
2001-08-14 07:37:31 51°18.265 2°49.405 -999 -999 -999  
2001-08-14 07:37:37 51°18.273 2°49.373 -999 -999 -999  
2001-08-14 07:37:43 51°18.281 2°49.34 -999 -999 -999  
2001-08-14 07:37:47 51°18.285 2°49.319 -999 -999 -999  
2001-08-14 07:37:51 51°18.291 2°49.297 -999 -999 -999  
2001-08-14 07:37:57 51°18.298 2°49.265 -999 -999 -999  
2001-08-14 07:38:03 51°18.306 2°49.232 -999 -999 -999  
2001-08-14 07:38:07 51°18.311 2°49.21 -999 -999 -999  
2001-08-14 07:38:11 51°18.316 2°49.189 -999 -999 -999  
2001-08-14 07:38:17 51°18.324 2°49.157 -999 -999 -999  
2001-08-14 07:38:21 51°18.329 2°49.136 -999 -999 -999  
2001-08-14 07:38:27 51°18.337 2°49.104 -999 -999 -999  
2001-08-14 07:38:31 51°18.342 2°49.082 -999 -999 -999  
2001-08-14 07:38:37 51°18.35 2°49.05 -999 -999 -999  
2001-08-14 07:38:43 51°18.358 2°49.018 -999 -999 -999  
2001-08-14 07:38:47 51°18.364 2°48.997 -999 -999 -999  
2001-08-14 07:38:51 51°18.369 2°48.975 -999 -999 -999  
2001-08-14 07:38:57 51°18.377 2°48.943 -999 -999 -999  
2001-08-14 07:39:01 51°18.383 2°48.922 -999 -999 -999  
2001-08-14 07:39:07 51°18.391 2°48.89 -999 -999 -999  
2001-08-14 07:39:11 51°18.396 2°48.868 -999 -999 -999  
2001-08-14 07:39:17 51°18.405 2°48.836 -999 -999 -999  
2001-08-14 07:39:23 51°18.413 2°48.804 -999 -999 -999  
2001-08-14 07:39:27 51°18.418 2°48.783 -999 -999 -999  
2001-08-14 07:39:31 51°18.423 2°48.762 -999 -999 -999  
2001-08-14 07:39:37 51°18.43 2°48.73 -999 -999 -999  
2001-08-14 07:39:41 51°18.436 2°48.708 -999 -999 -999  
2001-08-14 07:39:47 51°18.444 2°48.676 -999 -999 -999  
2001-08-14 07:39:53 51°18.452 2°48.644 -999 -999 -999  
2001-08-14 07:39:57 51°18.458 2°48.623 -999 -999 -999  
2001-08-14 07:40:03 51°18.466 2°48.591 -999 -999 -999  
2001-08-14 07:40:07 51°18.472 2°48.57 -999 -999 -999  
2001-08-14 07:40:11 51°18.478 2°48.549 -999 -999 -999  
2001-08-14 07:40:17 51°18.486 2°48.517 -999 -999 -999  
2001-08-14 07:40:23 51°18.495 2°48.485 -999 -999 -999  
2001-08-14 07:40:27 51°18.501 2°48.464 -999 -999 -999  
2001-08-14 07:40:31 51°18.507 2°48.443 -999 -999 -999  
2001-08-14 07:40:37 51°18.516 2°48.411 -999 -999 -999  
2001-08-14 07:40:41 51°18.521 2°48.389 -999 -999 -999  
2001-08-14 07:40:47 51°18.53 2°48.357 -999 -999 -999  
2001-08-14 07:40:51 51°18.536 2°48.336 -999 -999 -999  
2001-08-14 07:40:57 51°18.545 2°48.304 -999 -999 -999  
2001-08-14 07:41:03 51°18.554 2°48.272 -999 -999 -999  
2001-08-14 07:41:07 51°18.56 2°48.251 -999 -999 -999  
2001-08-14 07:41:11 51°18.565 2°48.229 -999 -999 -999  
2001-08-14 07:41:17 51°18.575 2°48.198 -999 -999 -999  
2001-08-14 07:41:21 51°18.581 2°48.177 -999 -999 -999  
2001-08-14 07:41:27 51°18.59 2°48.146 -999 -999 -999  
2001-08-14 07:41:31 51°18.596 2°48.125 -999 -999 -999  
2001-08-14 07:41:37 51°18.605 2°48.093 -999 -999 -999  
2001-08-14 07:41:43 51°18.614 2°48.061 -999 -999 -999  
2001-08-14 07:41:47 51°18.62 2°48.04 -999 -999 -999  
2001-08-14 07:41:51 51°18.626 2°48.019 -999 -999 -999  
2001-08-14 07:41:57 51°18.636 2°47.987 -999 -999 -999  
2001-08-14 07:42:01 51°18.642 2°47.966 -999 -999 -999  
2001-08-14 07:42:07 51°18.651 2°47.935 -999 -999 -999  
2001-08-14 07:42:11 51°18.657 2°47.914 -999 -999 -999  
2001-08-14 07:42:17 51°18.666 2°47.883 -999 -999 -999  
2001-08-14 07:42:23 51°18.675 2°47.851 -999 -999 -999  
2001-08-14 07:42:27 51°18.682 2°47.831 -999 -999 -999  
2001-08-14 07:42:31 51°18.688 2°47.809 -999 -999 -999  
2001-08-14 07:42:37 51°18.697 2°47.778 -999 -999 -999  
2001-08-14 07:42:41 51°18.703 2°47.757 -999 -999 -999  
2001-08-14 07:42:47 51°18.713 2°47.726 -999 -999 -999  
2001-08-14 07:42:51 51°18.719 2°47.705 -999 -999 -999  
2001-08-14 07:42:57 51°18.728 2°47.674 -999 -999 -999  
2001-08-14 07:43:01 51°18.734 2°47.653 -999 -999 -999  
2001-08-14 07:43:07 51°18.744 2°47.622 -999 -999 -999  
2001-08-14 07:43:12 51°18.752 2°47.596 -999 -999 -999  
2001-08-14 07:43:17 51°18.76 2°47.57 -999 -999 -999  
2001-08-14 07:43:21 51°18.766 2°47.549 -999 -999 -999  
2001-08-14 07:43:27 51°18.776 2°47.517 -999 -999 -999  
2001-08-14 07:43:31 51°18.782 2°47.496 -999 -999 -999  
2001-08-14 07:43:37 51°18.791 2°47.465 -999 -999 -999  
2001-08-14 07:43:41 51°18.796 2°47.443 -999 -999 -999  
2001-08-14 07:43:47 51°18.804 2°47.411 -999 -999 -999  
2001-08-14 07:43:51 51°18.81 2°47.39 -999 -999 -999  
2001-08-14 07:43:57 51°18.818 2°47.358 -999 -999 -999  
2001-08-14 07:44:03 51°18.825 2°47.325 -999 -999 -999  
2001-08-14 07:44:07 51°18.831 2°47.304 -999 -999 -999  
2001-08-14 07:44:11 51°18.836 2°47.283 -999 -999 -999  
2001-08-14 07:44:17 51°18.844 2°47.251 -999 -999 -999  
2001-08-14 07:44:23 51°18.851 2°47.219 -999 -999 -999  
2001-08-14 07:44:27 51°18.857 2°47.197 -999 -999 -999  
2001-08-14 07:44:31 51°18.862 2°47.176 -999 -999 -999  
2001-08-14 07:44:37 51°18.87 2°47.144 -999 -999 -999  
2001-08-14 07:44:41 51°18.875 2°47.122 -999 -999 -999  
2001-08-14 07:44:47 51°18.882 2°47.09 -999 -999 -999  
2001-08-14 07:44:51 51°18.887 2°47.069 -999 -999 -999  
2001-08-14 07:44:57 51°18.895 2°47.037 -999 -999 -999  
2001-08-14 07:45:03 51°18.903 2°47.005 -999 -999 -999  
2001-08-14 07:45:07 51°18.907 2°46.983 -999 -999 -999  
2001-08-14 07:45:11 51°18.913 2°46.962 -999 -999 -999  
2001-08-14 07:45:17 51°18.92 2°46.929 -999 -999 -999  
2001-08-14 07:45:23 51°18.928 2°46.897 -999 -999 -999  
2001-08-14 07:45:27 51°18.933 2°46.876 -999 -999 -999  
2001-08-14 07:45:32 51°18.939 2°46.849 -999 -999 -999  
2001-08-14 07:45:37 51°18.946 2°46.822 -999 -999 -999  
2001-08-14 07:45:41 51°18.951 2°46.8 -999 -999 -999  
2001-08-14 07:45:47 51°18.959 2°46.769 -999 -999 -999  
2001-08-14 07:45:52 51°18.966 2°46.742 -999 -999 -999  
2001-08-14 07:45:57 51°18.973 2°46.716 -999 -999 -999  
2001-08-14 07:46:02 51°18.98 2°46.689 -999 -999 -999  
2001-08-14 07:46:07 51°18.987 2°46.663 -999 -999 -999  
2001-08-14 07:46:13 51°18.995 2°46.631 -999 -999 -999  
2001-08-14 07:46:17 51°19 2°46.61 -999 -999 -999  
2001-08-14 07:46:21 51°19.005 2°46.588 -999 -999 -999  
2001-08-14 07:46:27 51°19.013 2°46.555 -999 -999 -999  
2001-08-14 07:46:32 51°19.019 2°46.528 -999 -999 -999  
2001-08-14 07:46:37 51°19.025 2°46.5 -999 -999 -999  
2001-08-14 07:46:41 51°19.03 2°46.479 -999 -999 -999  
2001-08-14 07:46:47 51°19.037 2°46.446 -999 -999 -999  
2001-08-14 07:46:53 51°19.044 2°46.413 -999 -999 -999  
2001-08-14 07:46:57 51°19.049 2°46.391 -999 -999 -999  
2001-08-14 07:47:03 51°19.056 2°46.359 -999 -999 -999  
2001-08-14 07:47:07 51°19.061 2°46.338 -999 -999 -999  
2001-08-14 07:47:11 51°19.066 2°46.316 -999 -999 -999  
2001-08-14 07:47:17 51°19.074 2°46.284 -999 -999 -999  
2001-08-14 07:47:21 51°19.079 2°46.262 -999 -999 -999  
2001-08-14 07:47:27 51°19.086 2°46.23 -999 -999 -999  
2001-08-14 07:47:33 51°19.094 2°46.197 -999 -999 -999  
2001-08-14 07:47:37 51°19.099 2°46.175 -999 -999 -999  
2001-08-14 07:47:41 51°19.104 2°46.153 -999 -999 -999  
2001-08-14 07:47:47 51°19.111 2°46.121 -999 -999 -999  
2001-08-14 07:47:51 51°19.116 2°46.099 -999 -999 -999  
2001-08-14 07:47:57 51°19.123 2°46.066 -999 -999 -999  
2001-08-14 07:48:03 51°19.13 2°46.033 -999 -999 -999  
2001-08-14 07:48:07 51°19.135 2°46.012 -999 -999 -999  
2001-08-14 07:48:13 51°19.142 2°45.979 -999 -999 -999  
2001-08-14 07:48:17 51°19.147 2°45.957 -999 -999 -999  
2001-08-14 07:48:21 51°19.153 2°45.936 -999 -999 -999  
2001-08-14 07:48:27 51°19.16 2°45.903 -999 -999 -999  
2001-08-14 07:48:32 51°19.167 2°45.876 -999 -999 -999  
2001-08-14 07:48:37 51°19.173 2°45.849 -999 -999 -999  
2001-08-14 07:48:43 51°19.182 2°45.817 -999 -999 -999  
2001-08-14 07:48:47 51°19.187 2°45.796 -999 -999 -999  
2001-08-14 07:48:53 51°19.195 2°45.764 -999 -999 -999  
2001-08-14 07:48:57 51°19.201 2°45.743 -999 -999 -999  
2001-08-14 07:49:03 51°19.209 2°45.711 -999 -999 -999  
2001-08-14 07:49:07 51°19.214 2°45.69 -999 -999 -999  
2001-08-14 07:49:11 51°19.219 2°45.668 -999 -999 -999  
2001-08-14 07:49:17 51°19.226 2°45.636 -999 -999 -999  
2001-08-14 07:49:21 51°19.23 2°45.614 -999 -999 -999  
2001-08-14 07:49:27 51°19.237 2°45.582 -999 -999 -999  
2001-08-14 07:49:31 51°19.242 2°45.56 -999 -999 -999  
2001-08-14 07:49:37 51°19.249 2°45.528 -999 -999 -999  
2001-08-14 07:49:43 51°19.256 2°45.495 -999 -999 -999  
2001-08-14 07:49:47 51°19.261 2°45.474 -999 -999 -999  
2001-08-14 07:49:51 51°19.266 2°45.453 -999 -999 -999  
2001-08-14 07:49:57 51°19.273 2°45.42 -999 -999 -999  
2001-08-14 07:50:01 51°19.278 2°45.399 -999 -999 -999  
2001-08-14 07:50:07 51°19.286 2°45.368 -999 -999 -999  
2001-08-14 07:50:11 51°19.291 2°45.346 -999 -999 -999  
2001-08-14 07:50:17 51°19.299 2°45.314 -999 -999 -999  
2001-08-14 07:50:23 51°19.306 2°45.283 -999 -999 -999  
2001-08-14 07:50:27 51°19.312 2°45.262 -999 -999 -999  
2001-08-14 07:50:31 51°19.317 2°45.241 -999 -999 -999  
2001-08-14 07:50:37 51°19.326 2°45.21 -999 -999 -999  
2001-08-14 07:50:41 51°19.331 2°45.19 -999 -999 -999  
2001-08-14 07:50:47 51°19.339 2°45.158 -999 -999 -999  
2001-08-14 07:50:51 51°19.344 2°45.138 -999 -999 -999  
2001-08-14 07:50:57 51°19.351 2°45.106 -999 -999 -999  
2001-08-14 07:51:03 51°19.358 2°45.075 -999 -999 -999  
2001-08-14 07:51:07 51°19.363 2°45.054 -999 -999 -999  
2001-08-14 07:51:11 51°19.368 2°45.033 -999 -999 -999  
2001-08-14 07:51:17 51°19.375 2°45.001 -999 -999 -999  
2001-08-14 07:51:21 51°19.38 2°44.98 -999 -999 -999  
2001-08-14 07:51:27 51°19.388 2°44.948 -999 -999 -999  
2001-08-14 07:51:31 51°19.394 2°44.927 -999 -999 -999  
2001-08-14 07:51:37 51°19.402 2°44.896 -999 -999 -999  
2001-08-14 07:51:41 51°19.408 2°44.875 -999 -999 -999  
2001-08-14 07:51:47 51°19.416 2°44.843 -999 -999 -999  
2001-08-14 07:51:52 51°19.423 2°44.817 -999 -999 -999  
2001-08-14 07:51:57 51°19.43 2°44.791 -999 -999 -999  
2001-08-14 07:52:03 51°19.438 2°44.759 -999 -999 -999  
2001-08-14 07:52:07 51°19.443 2°44.738 -999 -999 -999  
2001-08-14 07:52:13 51°19.451 2°44.706 -999 -999 -999  
2001-08-14 07:52:17 51°19.456 2°44.685 -999 -999 -999  
2001-08-14 07:52:21 51°19.462 2°44.664 -999 -999 -999  
2001-08-14 07:52:27 51°19.47 2°44.633 -999 -999 -999  
2001-08-14 07:52:31 51°19.475 2°44.612 -999 -999 -999  
2001-08-14 07:52:37 51°19.483 2°44.58 -999 -999 -999  
2001-08-14 07:52:41 51°19.488 2°44.559 -999 -999 -999  
2001-08-14 07:52:47 51°19.496 2°44.527 -999 -999 -999  
2001-08-14 07:52:51 51°19.502 2°44.506 -999 -999 -999  
2001-08-14 07:52:57 51°19.51 2°44.474 -999 -999 -999  
2001-08-14 07:53:03 51°19.518 2°44.443 -999 -999 -999  
2001-08-14 07:53:08 51°19.525 2°44.416 -999 -999 -999  
2001-08-14 07:53:13 51°19.532 2°44.39 -999 -999 -999  
2001-08-14 07:53:17 51°19.537 2°44.368 -999 -999 -999  
2001-08-14 07:53:23 51°19.545 2°44.336 -999 -999 -999  
2001-08-14 07:53:28 51°19.551 2°44.309 -999 -999 -999  
2001-08-14 07:53:33 51°19.558 2°44.283 -999 -999 -999  
2001-08-14 07:53:37 51°19.563 2°44.261 -999 -999 -999  
2001-08-14 07:53:43 51°19.571 2°44.229 -999 -999 -999  
2001-08-14 07:53:48 51°19.577 2°44.202 -999 -999 -999  
2001-08-14 07:53:53 51°19.583 2°44.175 -999 -999 -999  
2001-08-14 07:53:59 51°19.59 2°44.142 -999 -999 -999  
2001-08-14 07:54:03 51°19.594 2°44.12 -999 -999 -999  
2001-08-14 07:54:08 51°19.6 2°44.093 -999 -999 -999  
2001-08-14 07:54:13 51°19.605 2°44.066 -999 -999 -999  
2001-08-14 07:54:17 51°19.61 2°44.045 -999 -999 -999  
2001-08-14 07:54:23 51°19.617 2°44.012 -999 -999 -999  
2001-08-14 07:54:29 51°19.625 2°43.98 -999 -999 -999  
2001-08-14 07:54:33 51°19.63 2°43.959 -999 -999 -999  
2001-08-14 07:54:37 51°19.636 2°43.938 -999 -999 -999  
2001-08-14 07:54:43 51°19.644 2°43.905 -999 -999 -999  
2001-08-14 07:54:48 51°19.651 2°43.879 -999 -999 -999  
2001-08-14 07:54:53 51°19.657 2°43.852 -999 -999 -999  
2001-08-14 07:54:57 51°19.663 2°43.831 -999 -999 -999  
2001-08-14 07:55:03 51°19.67 2°43.798 -999 -999 -999  
2001-08-14 07:55:09 51°19.678 2°43.766 -999 -999 -999  
2001-08-14 07:55:13 51°19.683 2°43.744 -999 -999 -999  
2001-08-14 07:55:17 51°19.688 2°43.723 -999 -999 -999  
2001-08-14 07:55:23 51°19.695 2°43.69 -999 -999 -999  
2001-08-14 07:55:28 51°19.702 2°43.663 -999 -999 -999  
2001-08-14 07:55:33 51°19.708 2°43.636 -999 -999 -999  
2001-08-14 07:55:37 51°19.713 2°43.614 -999 -999 -999  
2001-08-14 07:55:43 51°19.721 2°43.581 -999 -999 -999  
2001-08-14 07:55:48 51°19.727 2°43.554 -999 -999 -999  
2001-08-14 07:55:53 51°19.733 2°43.527 -999 -999 -999  
2001-08-14 07:55:57 51°19.739 2°43.506 -999 -999 -999  
2001-08-14 07:56:03 51°19.746 2°43.473 -999 -999 -999  
2001-08-14 07:56:08 51°19.752 2°43.446 -999 -999 -999  
2001-08-14 07:56:13 51°19.758 2°43.418 -999 -999 -999  
2001-08-14 07:56:17 51°19.763 2°43.396 -999 -999 -999  
2001-08-14 07:56:23 51°19.771 2°43.364 -999 -999 -999  
2001-08-14 07:56:28 51°19.777 2°43.337 -999 -999 -999  
2001-08-14 07:56:33 51°19.783 2°43.31 -999 -999 -999  
2001-08-14 07:56:37 51°19.788 2°43.288 -999 -999 -999  
2001-08-14 07:56:43 51°19.795 2°43.255 -999 -999 -999  
2001-08-14 07:56:48 51°19.801 2°43.228 -999 -999 -999  
2001-08-14 07:56:53 51°19.808 2°43.2 -999 -999 -999  
2001-08-14 07:56:57 51°19.812 2°43.179 -999 -999 -999  
2001-08-14 07:57:03 51°19.82 2°43.146 -999 -999 -999  
2001-08-14 07:57:08 51°19.826 2°43.119 -999 -999 -999  
2001-08-14 07:57:13 51°19.832 2°43.091 -999 -999 -999  
2001-08-14 07:57:18 51°19.838 2°43.064 -999 -999 -999  
2001-08-14 07:57:23 51°19.844 2°43.037 -999 -999 -999  
2001-08-14 07:57:27 51°19.849 2°43.015 -999 -999 -999  
2001-08-14 07:57:33 51°19.857 2°42.982 -999 -999 -999  
2001-08-14 07:57:38 51°19.863 2°42.955 -999 -999 -999  
2001-08-14 07:57:43 51°19.87 2°42.927 -999 -999 -999  
2001-08-14 07:57:49 51°19.877 2°42.894 -999 -999 -999  
2001-08-14 07:57:53 51°19.882 2°42.873 -999 -999 -999  
2001-08-14 07:57:59 51°19.889 2°42.84 -999 -999 -999  
2001-08-14 07:58:03 51°19.894 2°42.818 -999 -999 -999  
2001-08-14 07:58:07 51°19.899 2°42.797 -999 -999 -999  
2001-08-14 07:58:13 51°19.906 2°42.764 -999 -999 -999  
2001-08-14 07:58:17 51°19.91 2°42.742 -999 -999 -999  
2001-08-14 07:58:23 51°19.918 2°42.709 -999 -999 -999  
2001-08-14 07:58:28 51°19.923 2°42.681 -999 -999 -999  
2001-08-14 07:58:33 51°19.929 2°42.654 -999 -999 -999  
2001-08-14 07:58:39 51°19.936 2°42.621 -999 -999 -999  
2001-08-14 07:58:43 51°19.94 2°42.599 -999 -999 -999  
2001-08-14 07:58:48 51°19.946 2°42.571 -999 -999 -999  
2001-08-14 07:58:53 51°19.951 2°42.544 -999 -999 -999  
2001-08-14 07:58:57 51°19.956 2°42.522 -999 -999 -999  
2001-08-14 07:59:03 51°19.963 2°42.489 -999 -999 -999  
2001-08-14 07:59:09 51°19.97 2°42.456 -999 -999 -999  
2001-08-14 07:59:13 51°19.975 2°42.434 -999 -999 -999  
2001-08-14 07:59:17 51°19.98 2°42.412 -999 -999 -999  
2001-08-14 07:59:23 51°19.987 2°42.38 -999 -999 -999  
2001-08-14 07:59:29 51°19.995 2°42.347 -999 -999 -999  
2001-08-14 07:59:33 51°20 2°42.325 -999 -999 -999  
2001-08-14 07:59:37 51°20.005 2°42.304 -999 -999 -999  
2001-08-14 07:59:43 51°20.012 2°42.271 -999 -999 -999  
2001-08-14 07:59:49 51°20.019 2°42.238 -999 -999 -999  
2001-08-14 07:59:53 51°20.023 2°42.216 -999 -999 -999  
2001-08-14 07:59:57 51°20.027 2°42.194 -999 -999 -999  
2001-08-14 08:00:01 51°20.031 2°42.172 -999 -999 -999  
2001-08-14 08:00:07 51°20.038 2°42.139 -999 -999 -999  
2001-08-14 08:00:13 51°20.044 2°42.106 -999 -999 -999  
2001-08-14 08:00:17 51°20.049 2°42.085 -999 -999 -999  
2001-08-14 08:00:21 51°20.054 2°42.063 -999 -999 -999  
2001-08-14 08:00:27 51°20.061 2°42.03 -999 -999 -999  
2001-08-14 08:00:33 51°20.067 2°41.997 -999 -999 -999  
2001-08-14 08:00:37 51°20.072 2°41.976 -999 -999 -999  
2001-08-14 08:00:41 51°20.076 2°41.954 -999 -999 -999  
2001-08-14 08:00:47 51°20.083 2°41.921 -999 -999 -999  
2001-08-14 08:00:51 51°20.087 2°41.899 -999 -999 -999  
2001-08-14 08:00:57 51°20.094 2°41.866 -999 -999 -999  
2001-08-14 08:01:01 51°20.099 2°41.845 -999 -999 -999  
2001-08-14 08:01:07 51°20.106 2°41.812 -999 -999 -999  
2001-08-14 08:01:11 51°20.111 2°41.791 -999 -999 -999  
2001-08-14 08:01:17 51°20.118 2°41.758 -999 -999 -999  
2001-08-14 08:01:21 51°20.123 2°41.737 -999 -999 -999  
2001-08-14 08:01:27 51°20.131 2°41.705 -999 -999 -999  
2001-08-14 08:01:32 51°20.138 2°41.679 -999 -999 -999  
2001-08-14 08:01:37 51°20.145 2°41.652 -999 -999 -999  
2001-08-14 08:01:43 51°20.154 2°41.621 -999 -999 -999  
2001-08-14 08:01:47 51°20.161 2°41.6 -999 -999 -999  
2001-08-14 08:01:53 51°20.17 2°41.569 -999 -999 -999  
2001-08-14 08:01:57 51°20.176 2°41.549 -999 -999 -999  
2001-08-14 08:02:03 51°20.185 2°41.517 -999 -999 -999  
2001-08-14 08:02:07 51°20.191 2°41.496 -999 -999 -999  
2001-08-14 08:02:11 51°20.196 2°41.475 -999 -999 -999  
2001-08-14 08:02:17 51°20.205 2°41.444 -999 -999 -999  
2001-08-14 08:02:23 51°20.214 2°41.412 -999 -999 -999  
2001-08-14 08:02:27 51°20.219 2°41.391 -999 -999 -999  
2001-08-14 08:02:31 51°20.224 2°41.369 -999 -999 -999  
2001-08-14 08:02:37 51°20.232 2°41.337 -999 -999 -999  
2001-08-14 08:02:43 51°20.239 2°41.304 -999 -999 -999  
2001-08-14 08:02:47 51°20.244 2°41.283 -999 -999 -999  
2001-08-14 08:02:51 51°20.249 2°41.261 -999 -999 -999  
2001-08-14 08:02:57 51°20.257 2°41.229 -999 -999 -999  
2001-08-14 08:03:03 51°20.265 2°41.198 -999 -999 -999  
2001-08-14 08:03:07 51°20.27 2°41.176 -999 -999 -999  
2001-08-14 08:03:11 51°20.275 2°41.155 -999 -999 -999  
2001-08-14 08:03:17 51°20.283 2°41.124 -999 -999 -999  
2001-08-14 08:03:21 51°20.289 2°41.102 -999 -999 -999  
2001-08-14 08:03:27 51°20.297 2°41.071 -999 -999 -999  
2001-08-14 08:03:33 51°20.305 2°41.039 -999 -999 -999  
2001-08-14 08:03:37 51°20.311 2°41.018 -999 -999 -999  
2001-08-14 08:03:43 51°20.319 2°40.987 -999 -999 -999  
2001-08-14 08:03:47 51°20.324 2°40.966 -999 -999 -999  
2001-08-14 08:03:53 51°20.332 2°40.934 -999 -999 -999  
2001-08-14 08:03:57 51°20.337 2°40.913 -999 -999 -999  
2001-08-14 08:04:03 51°20.345 2°40.881 -999 -999 -999  
2001-08-14 08:04:08 51°20.351 2°40.854 -999 -999 -999  
2001-08-14 08:04:13 51°20.358 2°40.827 -999 -999 -999  
2001-08-14 08:04:17 51°20.362 2°40.806 -999 -999 -999  
2001-08-14 08:04:23 51°20.37 2°40.774 -999 -999 -999  
2001-08-14 08:04:29 51°20.377 2°40.742 -999 -999 -999  
2001-08-14 08:04:33 51°20.383 2°40.721 -999 -999 -999  
2001-08-14 08:04:38 51°20.389 2°40.694 -999 -999 -999  
2001-08-14 08:04:43 51°20.396 2°40.668 -999 -999 -999  
2001-08-14 08:04:48 51°20.402 2°40.641 -999 -999 -999  
2001-08-14 08:04:53 51°20.408 2°40.614 -999 -999 -999  
2001-08-14 08:04:57 51°20.413 2°40.593 -999 -999 -999  
2001-08-14 08:05:03 51°20.42 2°40.56 -999 -999 -999  
2001-08-14 08:05:08 51°20.425 2°40.533 -999 -999 -999  
2001-08-14 08:05:13 51°20.431 2°40.506 -999 -999 -999  
2001-08-14 08:05:18 51°20.437 2°40.479 -999 -999 -999  
2001-08-14 08:05:23 51°20.442 2°40.452 -999 -999 -999  
2001-08-14 08:05:27 51°20.447 2°40.43 -999 -999 -999  
2001-08-14 08:05:33 51°20.454 2°40.398 -999 -999 -999  
2001-08-14 08:05:39 51°20.461 2°40.365 -999 -999 -999  
2001-08-14 08:05:43 51°20.465 2°40.343 -999 -999 -999  
2001-08-14 08:05:47 51°20.47 2°40.322 -999 -999 -999  
2001-08-14 08:05:53 51°20.478 2°40.289 -999 -999 -999  
2001-08-14 08:05:57 51°20.483 2°40.268 -999 -999 -999  
2001-08-14 08:06:03 51°20.49 2°40.235 -999 -999 -999  
2001-08-14 08:06:09 51°20.496 2°40.202 -999 -999 -999  
2001-08-14 08:06:13 51°20.501 2°40.18 -999 -999 -999  
2001-08-14 08:06:17 51°20.505 2°40.158 -999 -999 -999  
2001-08-14 08:06:23 51°20.512 2°40.125 -999 -999 -999  
2001-08-14 08:06:27 51°20.516 2°40.103 -999 -999 -999  
2001-08-14 08:06:33 51°20.523 2°40.07 -999 -999 -999  
2001-08-14 08:06:39 51°20.53 2°40.038 -999 -999 -999  
2001-08-14 08:06:43 51°20.535 2°40.016 -999 -999 -999  
2001-08-14 08:06:47 51°20.54 2°39.994 -999 -999 -999  
2001-08-14 08:06:53 51°20.547 2°39.961 -999 -999 -999  
2001-08-14 08:06:57 51°20.552 2°39.94 -999 -999 -999  
2001-08-14 08:07:03 51°20.56 2°39.907 -999 -999 -999  
2001-08-14 08:07:09 51°20.567 2°39.875 -999 -999 -999  
2001-08-14 08:07:13 51°20.573 2°39.853 -999 -999 -999  
2001-08-14 08:07:19 51°20.58 2°39.821 -999 -999 -999  
2001-08-14 08:07:23 51°20.586 2°39.799 -999 -999 -999  
2001-08-14 08:07:27 51°20.59 2°39.777 -999 -999 -999  
2001-08-14 08:07:33 51°20.597 2°39.744 -999 -999 -999  
2001-08-14 08:07:39 51°20.604 2°39.711 -999 -999 -999  
2001-08-14 08:07:43 51°20.608 2°39.689 -999 -999 -999  
2001-08-14 08:07:49 51°20.614 2°39.656 -999 -999 -999  
2001-08-14 08:07:53 51°20.618 2°39.634 -999 -999 -999  
2001-08-14 08:07:58 51°20.623 2°39.606 -999 -999 -999  
2001-08-14 08:08:03 51°20.628 2°39.578 -999 -999 -999  
2001-08-14 08:08:08 51°20.633 2°39.55 -999 -999 -999  
2001-08-14 08:08:13 51°20.637 2°39.522 -999 -999 -999  
2001-08-14 08:08:17 51°20.641 2°39.5 -999 -999 -999  
2001-08-14 08:08:23 51°20.647 2°39.467 -999 -999 -999  
2001-08-14 08:08:29 51°20.652 2°39.434 -999 -999 -999  
2001-08-14 08:08:33 51°20.656 2°39.411 -999 -999 -999  
2001-08-14 08:08:38 51°20.66 2°39.384 -999 -999 -999  
2001-08-14 08:08:43 51°20.664 2°39.356 -999 -999 -999  
2001-08-14 08:08:47 51°20.668 2°39.334 -999 -999 -999  
2001-08-14 08:08:53 51°20.673 2°39.3 -999 -999 -999  
2001-08-14 08:08:59 51°20.679 2°39.267 -999 -999 -999  
2001-08-14 08:09:03 51°20.683 2°39.245 -999 -999 -999  
2001-08-14 08:09:07 51°20.686 2°39.223 -999 -999 -999  
2001-08-14 08:09:13 51°20.692 2°39.189 -999 -999 -999  
2001-08-14 08:09:17 51°20.695 2°39.167 -999 -999 -999